Theta_e
297 298 299 302 307 310 312 316 319 322 321 319 318 316 316 316 314 313 311 309 307 306 307 306 304 306 304 303 302 302 301 300 297 295 296 289 290 294 294 294 295 295 296
295 296 297 299 303 309 311 314 317 318 318 318 318 316 315 315 314 312 310 309 306 305 305 304 304 304 303 303 302 301 301 302 300 291 290 288 288 289 289 290 292 294 294
293 294 295 297 297 299 307 309 315 315 315 316 317 316 314 314 313 312 311 310 308 306 306 304 304 304 302 303 302 301 301 301 300 295 289 290 289 289 288 290 290 289 292
292 292 293 294 296 296 299 301 305 315 314 316 317 317 315 314 313 312 311 310 309 307 307 306 305 304 303 303 302 301 300 299 297 296 290 289 289 287 289 288 287 289 288
291 291 291 293 295 296 297 301 306 312 315 316 316 316 315 313 312 312 311 310 308 307 306 306 306 303 298 302 303 301 300 297 296 295 291 289 288 284 285 288 288 287 287
290 290 291 292 293 295 295 297 301 307 312 314 314 314 314 312 305 302 308 309 308 307 306 306 306 295 296 296 297 299 301 298 295 294 294 291 289 288 288 287 287 285 284
290 290 290 291 291 292 294 294 296 299 305 310 312 313 313 313 301 300 299 310 308 308 307 306 305 305 298 301 297 296 296 297 298 297 295 294 293 291 289 287 287 288 289
290 290 290 290 290 291 292 293 294 296 297 302 309 312 312 312 300 299 297 309 309 308 308 308 306 305 302 302 300 297 298 297 297 297 298 298 296 294 291 292 289 289 286
290 290 290 290 290 291 290 291 292 293 295 297 300 307 310 311 299 298 299 306 308 307 308 308 307 305 300 296 300 298 296 297 297 296 297 297 296 295 293 290 287 286 286
290 290 291 291 290 289 290 290 291 291 292 294 296 300 299 308 301 298 299 306 305 305 305 306 292 303 296 295 300 299 295 295 295 294 294 294 294 293 292 292 290 288 288
291 291 291 290 289 290 290 290 290 289 290 291 293 296 299 302 305 297 298 306 305 304 303 301 304 295 296 296 297 301 298 297 295 294 293 293 293 291 290 291 292 291 289
290 289 289 288 288 288 287 288 287 288 288 288 290 291 294 299 296 298 296 298 304 304 300 300 301 295 296 296 296 298 297 296 294 292 292 291 291 290 289 290 291 291 292
287 286 286 286 286 286 286 286 286 287 287 287 288 289 291 293 297 296 295 295 295 301 303 299 297 295 295 296 295 296 292 295 292 290 290 290 291 291 290 288 288 287 287
285 285 285 285 285 286 286 286 286 286 286 286 287 288 290 291 293 296 297 297 291 294 296 295 296 297 296 297 293 294 294 295 293 291 291 291 290 289 287 287 286 286 285
285 285 285 285 285 286 286 286 286 287 288 287 287 288 289 289 291 294 294 294 296 294 290 288 288 290 291 291 291 292 292 291 290 290 290 288 288 287 287 287 287 285 285
284 284 284 285 285 286 285 285 288 288 288 289 289 289 288 290 291 292 293 294 294 293 288 291 292 291 291 291 290 289 289 289 290 289 289 288 287 287 286 285 286 285 284
283 283 284 284 284 284 284 284 283 286 288 289 289 289 288 288 289 290 292 293 293 292 290 291 292 291 291 291 290 290 289 289 289 289 289 288 288 287 286 285 285 285 284
280 281 283 283 284 284 284 284 284 284 283 284 288 289 289 289 289 289 290 292 289 291 290 290 290 291 291 290 290 290 289 288 288 289 288 288 287 287 286 285 285 285 284
276 278 280 282 282 282 283 283 284 284 283 284 285 287 288 289 289 290 290 289 289 289 289 289 290 290 290 290 289 289 289 288 288 288 288 287 287 287 286 286 285 285 285
273 274 277 279 280 280 281 281 281 282 283 284 284 285 287 286 286 287 288 288 289 289 289 289 289 288 288 288 288 288 288 287 287 287 287 287 287 287 287 286 286 285 284
272 273 275 276 276 277 279 280 281 281 282 283 285 286 288 286 286 287 287 288 289 289 289 288 288 287 288 288 288 288 287 288 287 287 287 287 287 286 287 287 286 286 285
271 272 274 275 276 276 278 279 281 281 283 283 284 286 288 287 287 287 287 288 288 288 288 288 288 288 288 288 288 287 287 287 287 287 287 287 287 287 287 286 285 285 285
271 271 272 274 276 277 278 280 281 282 282 283 285 286 286 286 286 287 287 288 287 287 288 288 288 288 288 288 288 288 287 287 288 288 287 287 286 286 286 285 285 284 284
271 271 272 274 276 277 279 280 282 283 284 285 285 285 285 286 286 287 287 287 287 287 287 287 288 287 287 287 287 287 288 288 287 287 288 287 286 286 286 285 285 284 283
273 273 274 275 277 278 280 281 283 285 285 285 285 286 286 286 286 286 287 287 287 287 287 287 287 287 287 287 287 287 287 286 287 287 287 287 286 286 285 285 285 284 283
277 277 278 279 281 282 284 284 284 285 285 285 285 285 286 286 286 286 286 286 286 286 286 286 286 286 286 287 287 286 286 286 286 286 286 286 285 285 285 284 284 283 283
Wind_Speed
9 10 10 10 12 13 14 16 17 17 18 16 17 19 19 19 18 16 16 15 16 15 15 16 16 16 11 10 9 9 10 10 10 1 2 3 6 6 7 8 7 7 7
10 11 10 10 10 12 13 14 16 17 16 17 17 18 19 19 18 18 17 15 16 17 17 17 18 13 16 13 10 13 12 12 10 7 6 4 6 7 2 8 7 7 7
9 10 11 10 10 10 12 11 14 16 17 14 15 18 18 19 19 19 19 19 18 19 18 18 17 17 16 13 13 12 11 10 9 5 5 3 3 6 4 5 7 5 4
9 10 11 10 11 10 11 11 10 14 16 17 16 17 18 19 19 19 18 18 18 17 18 18 18 19 18 18 15 16 12 10 8 8 5 4 3 4 6 8 7 6 7
8 9 10 11 11 11 11 11 10 11 13 15 16 15 17 17 15 18 18 18 18 17 17 18 18 19 21 21 14 15 15 11 8 10 6 4 5 5 13 8 10 6 7
8 9 9 10 11 10 11 11 10 8 10 13 15 16 16 13 18 20 19 17 18 18 17 17 17 15 17 22 21 19 20 17 16 12 12 12 14 10 9 8 8 6 7
8 9 8 9 10 10 10 11 10 9 6 9 12 14 15 17 17 21 22 16 16 17 18 16 15 13 15 16 21 19 19 22 23 17 17 17 15 14 13 13 14 11 8
8 8 8 7 9 9 10 10 10 10 9 7 9 12 13 13 16 20 23 21 16 18 18 18 17 16 16 18 16 18 19 17 18 13 15 13 13 13 17 17 15 8 3
9 9 8 7 8 8 9 10 10 9 9 9 9 9 11 12 14 19 19 18 17 16 15 16 17 16 17 22 17 16 17 17 16 23 21 16 11 14 16 8 9 11 9
9 10 8 7 8 9 9 9 8 9 9 8 10 10 11 9 12 18 19 12 15 12 11 13 16 17 18 25 20 15 15 15 14 12 15 13 10 13 23 17 13 13 10
10 9 8 8 8 9 9 7 7 9 9 9 10 10 12 11 9 15 20 14 12 11 10 9 11 19 17 25 27 17 17 12 16 14 11 11 11 10 12 14 14 14 12
8 9 9 7 7 7 7 7 7 8 8 9 9 8 8 11 11 9 16 23 16 11 9 8 9 17 22 23 22 26 17 16 9 10 9 9 10 10 11 13 16 14 12
6 10 10 7 8 7 8 8 7 7 8 8 7 8 8 5 8 12 12 17 20 13 8 10 14 18 22 21 25 25 17 10 9 9 10 10 10 11 10 9 10 6 5
9 11 8 9 10 9 6 6 7 7 8 8 8 9 8 7 7 6 8 6 13 11 13 7 12 15 17 15 11 15 11 11 11 11 10 9 7 7 9 9 10 10 10
10 12 12 10 10 10 9 9 9 10 10 9 9 9 9 9 9 9 8 7 8 8 4 2 3 5 7 7 6 7 8 8 8 8 7 8 8 8 9 8 8 8 10
14 12 11 10 10 9 9 10 16 22 21 18 21 16 11 18 17 12 14 15 12 11 3 7 9 9 10 9 9 8 7 9 9 8 8 8 9 10 9 8 9 10 11
17 15 11 11 11 11 10 11 11 12 16 20 24 25 28 26 25 20 15 13 13 12 7 9 11 11 10 9 9 9 9 8 9 9 10 10 9 9 11 10 10 10 10
17 20 13 13 13 12 12 12 10 11 11 10 14 18 24 26 26 24 20 10 7 12 10 11 10 11 9 9 9 9 7 7 9 9 9 10 10 10 10 11 11 12 11
17 15 16 14 14 15 13 12 12 12 12 12 11 12 14 23 22 20 18 12 12 12 11 12 11 9 8 8 8 8 9 9 10 9 10 10 10 10 10 10 11 15 14
16 24 20 14 12 13 13 13 12 13 13 13 12 13 10 8 10 10 10 12 12 12 10 11 9 8 8 8 8 8 9 9 9 9 9 9 9 10 11 11 11 11 12
12 13 18 15 16 14 13 14 13 14 14 13 13 14 17 11 11 10 10 11 12 11 10 8 8 8 7 8 8 8 9 8 9 9 9 9 10 10 10 10 11 11 10
13 13 13 12 12 13 13 14 14 14 14 14 14 12 20 12 11 11 11 11 10 9 7 7 8 8 8 9 9 9 9 9 9 9 9 9 9 10 10 10 10 10 10
14 14 13 13 13 15 13 14 14 15 16 15 13 11 9 12 11 10 10 9 8 7 8 9 10 9 8 8 8 9 9 9 9 9 10 10 10 9 10 10 10 10 11
14 14 14 13 12 13 13 13 12 16 15 13 11 10 10 10 10 11 9 8 9 9 9 9 9 11 9 8 7 8 7 7 7 9 13 10 10 11 10 10 10 12 10
12 12 12 12 12 12 12 13 13 11 11 11 9 9 9 9 9 9 9 9 9 9 9 9 7 10 12 13 11 11 11 11 11 10 9 10 11 13 11 9 9 9 10
9 11 10 10 11 11 9 8 8 8 8 7 7 7 7 8 8 8 7 8 7 7 8 7 8 11 11 10 12 12 11 12 12 12 9 8 9 9 9 10 12 8 10
Wind_Direction
323 320 309 296 278 255 242 240 241 234 229 215 202 204 208 207 200 199 199 196 203 202 205 207 209 208 209 207 202 208 215 217 227 105 127 142 191 202 183 196 192 195 198
318 318 315 309 302 269 251 246 241 240 233 228 206 205 206 204 199 198 197 196 197 201 205 209 211 209 212 209 204 208 213 214 216 182 178 159 190 209 171 189 199 198 203
315 315 314 316 322 309 287 301 255 233 239 241 210 204 205 203 201 199 201 200 201 203 205 206 209 209 211 208 206 206 211 215 212 149 159 152 160 169 185 200 204 208 209
315 313 310 316 321 317 306 289 280 267 231 234 233 210 204 205 205 201 202 204 205 205 206 206 207 210 208 208 207 208 206 209 199 197 157 157 166 154 190 198 203 200 209
308 309 311 316 312 317 318 307 280 286 252 238 232 218 208 204 204 203 202 204 205 205 207 208 209 210 208 209 205 204 201 199 197 200 178 153 167 159 198 183 207 187 210
291 299 307 311 316 315 320 322 308 291 291 257 244 224 213 208 200 197 199 204 205 206 208 209 212 205 206 205 210 209 201 192 201 200 206 209 204 200 177 183 183 182 213
276 287 301 308 310 315 316 318 319 308 298 284 254 230 219 213 195 194 197 205 205 208 210 209 210 211 203 206 211 209 210 211 205 201 207 209 208 194 175 180 193 200 208
268 284 292 302 302 310 313 313 317 319 314 294 283 253 230 220 195 196 197 211 211 211 211 212 208 207 199 201 202 210 217 217 217 213 218 224 222 186 189 200 197 188 75
261 271 280 293 296 299 303 310 311 312 315 312 305 297 244 231 203 197 195 213 220 217 214 212 210 210 199 193 200 207 212 222 217 223 224 223 209 186 182 154 176 181 203
254 258 268 276 282 285 293 298 306 302 299 302 302 295 289 261 221 199 198 213 219 223 214 216 206 208 190 189 204 207 212 211 203 210 224 228 203 188 179 189 181 198 211
242 245 255 257 264 272 281 278 283 289 286 283 281 282 283 274 269 205 210 213 218 220 218 208 210 204 194 192 203 210 214 195 203 208 215 217 210 191 190 199 201 200 207
235 230 237 239 241 257 262 265 265 272 274 272 273 273 264 265 254 229 210 217 225 222 214 208 208 193 203 199 202 217 210 193 193 197 204 204 201 198 196 199 207 209 219
234 231 233 231 246 245 254 261 264 262 268 274 266 270 272 255 252 240 219 218 228 237 217 206 198 195 202 209 213 214 209 200 193 197 204 204 201 203 193 193 208 206 189
244 243 238 234 244 244 241 242 247 249 253 260 265 267 267 264 254 240 235 223 231 229 236 203 203 207 206 211 211 217 214 210 200 202 209 204 190 178 186 183 193 194 204
250 253 254 250 249 248 240 246 243 245 236 243 248 256 264 261 252 245 224 219 224 219 162 128 167 190 205 210 211 206 205 202 200 202 195 184 185 182 190 180 192 188 209
257 249 249 250 250 248 250 259 238 242 245 241 246 250 260 265 276 268 246 230 219 173 188 210 216 205 208 202 205 202 196 197 199 198 196 192 189 187 188 185 196 199 206
258 259 255 248 248 246 248 252 261 263 237 242 240 247 252 256 265 265 258 233 213 185 219 220 226 215 208 200 195 197 202 197 188 199 200 199 190 190 189 193 197 202 210
259 258 253 247 243 245 244 247 248 252 261 260 242 235 253 251 252 254 248 223 226 216 227 226 222 226 208 198 192 194 191 180 191 199 203 197 195 192 194 198 198 204 206
251 248 246 245 239 240 246 246 244 246 249 257 263 252 247 243 247 245 233 230 232 229 225 224 220 215 203 192 188 189 191 194 192 196 199 201 197 194 204 203 204 207 203
252 251 251 251 245 242 243 242 241 245 246 245 248 249 245 219 233 233 223 230 228 226 223 219 215 204 189 183 185 190 192 193 196 199 201 200 198 199 209 206 203 202 206
251 247 240 237 237 239 240 237 237 238 239 239 242 243 231 218 234 228 226 227 227 224 220 209 208 189 185 187 187 192 197 198 202 200 200 200 198 203 207 209 207 207 206
242 242 239 236 235 236 234 234 236 239 240 237 242 238 224 215 225 223 223 226 222 213 197 200 200 195 196 197 191 196 200 202 199 198 203 203 201 204 204 207 202 202 202
233 234 233 233 235 236 234 232 230 231 235 238 234 227 207 216 223 221 223 218 205 194 197 204 210 210 198 198 194 197 202 205 201 195 200 201 201 202 200 204 201 200 198
219 223 228 230 230 230 233 234 233 234 235 233 224 214 209 210 216 212 209 206 197 198 196 201 204 196 192 194 195 200 203 198 190 197 198 201 201 198 200 201 202 201 200
210 218 222 226 229 231 234 237 233 228 225 223 219 213 210 209 207 203 199 196 197 195 194 192 192 195 194 194 196 199 200 194 195 194 199 205 205 199 200 201 192 199 195
208 219 224 229 231 229 227 227 221 217 217 213 210 208 206 204 203 198 194 193 191 193 190 188 190 193 194 201 203 199 195 195 196 192 191 193 195 197 197 198 193 189 190